TimeMDT,TemperatureF,Dew PointF,Humidity,Sea Level PressureIn,VisibilityMPH,Wind Direction,Wind SpeedMPH,Gust SpeedMPH,PrecipitationIn,Events,Conditions,WindDirDegrees,DateUTC
12:15 AM,72.7,59.9,64,29.80,10.0,SSE,17.3,29.9,N/A,,Clear,160,2013-06-20 06:15:00
12:35 AM,72.0,60.3,67,29.79,10.0,SSE,17.3,26.5,N/A,,Clear,160,2013-06-20 06:35:00
12:55 AM,71.6,60.8,69,29.79,10.0,SSE,17.3,24.2,N/A,,Clear,160,2013-06-20 06:55:00
1:15 AM,71.2,61.0,70,29.80,10.0,SSE,5.8,20.7,N/A,,Clear,150,2013-06-20 07:15:00
1:35 AM,71.1,61.2,71,29.82,10.0,Calm,Calm,-,N/A,,Mostly Cloudy,0,2013-06-20 07:35:00
1:55 AM,70.7,61.5,73,29.79,10.0,SSE,17.3,20.7,N/A,,Scattered Clouds,160,2013-06-20 07:55:00
2:15 AM,70.2,61.7,74,29.81,10.0,Calm,Calm,-,N/A,,Scattered Clouds,0,2013-06-20 08:15:00
2:35 AM,69.8,61.9,76,29.79,10.0,SSE,11.5,-,N/A,,Mostly Cloudy,150,2013-06-20 08:35:00
2:55 AM,68.9,61.9,78,29.80,10.0,ENE,3.5,-,N/A,,Mostly Cloudy,70,2013-06-20 08:55:00
3:15 AM,68.4,61.7,79,29.78,10.0,SE,10.4,-,N/A,,Scattered Clouds,140,2013-06-20 09:15:00
3:35 AM,67.6,61.7,81,29.78,10.0,ESE,9.2,-,N/A,,Clear,110,2013-06-20 09:35:00
3:55 AM,66.7,61.3,83,29.76,10.0,ESE,9.2,-,N/A,,Clear,120,2013-06-20 09:55:00
4:15 AM,66.0,60.8,83,29.76,10.0,East,9.2,-,N/A,,Clear,90,2013-06-20 10:15:00
4:35 AM,65.8,60.8,84,29.76,10.0,East,8.1,-,N/A,,Clear,100,2013-06-20 10:35:00
4:55 AM,65.1,60.4,85,29.76,10.0,East,8.1,-,N/A,,Clear,100,2013-06-20 10:55:00
5:15 AM,64.8,60.1,85,29.77,10.0,ESE,6.9,-,N/A,,Clear,110,2013-06-20 11:15:00
5:35 AM,64.6,60.1,85,29.78,10.0,East,3.5,-,N/A,,Clear,90,2013-06-20 11:35:00
5:55 AM,64.6,60.3,86,29.77,10.0,SE,6.9,-,N/A,,Clear,130,2013-06-20 11:55:00
6:15 AM,64.6,60.8,88,29.78,10.0,ESE,4.6,-,N/A,,Clear,110,2013-06-20 12:15:00
6:35 AM,65.5,61.3,86,29.79,10.0,East,3.5,-,N/A,,Clear,100,2013-06-20 12:35:00
6:55 AM,66.2,61.7,85,29.79,10.0,ESE,3.5,-,N/A,,Clear,120,2013-06-20 12:55:00
7:15 AM,67.3,61.9,83,29.79,10.0,SSE,4.6,-,N/A,,Scattered Clouds,150,2013-06-20 13:15:00
7:35 AM,68.2,61.9,80,29.80,10.0,SSE,5.8,-,N/A,,Clear,150,2013-06-20 13:35:00
7:55 AM,69.3,61.9,77,29.80,10.0,SE,8.1,-,N/A,,Clear,140,2013-06-20 13:55:00
8:15 AM,70.0,61.7,75,29.81,10.0,Calm,Calm,-,N/A,,Scattered Clouds,0,2013-06-20 14:15:00
8:35 AM,71.1,62.2,74,29.82,10.0,SW,4.6,-,N/A,,Mostly Cloudy,220,2013-06-20 14:35:00
8:55 AM,71.1,61.9,73,29.83,10.0,SSW,3.5,-,N/A,,Overcast,200,2013-06-20 14:55:00
9:15 AM,72.0,62.4,72,29.83,10.0,Calm,Calm,-,N/A,,Overcast,0,2013-06-20 15:15:00
9:35 AM,73.2,62.6,69,29.83,10.0,WNW,4.6,-,N/A,,Overcast,300,2013-06-20 15:35:00
9:55 AM,74.3,62.4,66,29.83,10.0,NNW,6.9,-,N/A,,Mostly Cloudy,340,2013-06-20 15:55:00
10:15 AM,75.9,62.2,62,29.83,10.0,North,6.9,-,N/A,,Scattered Clouds,10,2013-06-20 16:15:00
10:35 AM,77.2,62.1,59,29.84,10.0,NW,5.8,-,N/A,,Scattered Clouds,320,2013-06-20 16:35:00
10:55 AM,77.7,62.2,59,29.84,10.0,NE,8.1,-,N/A,,Clear,40,2013-06-20 16:55:00
11:15 AM,78.1,62.6,59,29.84,10.0,NE,9.2,-,N/A,,Clear,40,2013-06-20 17:15:00
11:35 AM,79.2,62.6,57,29.84,10.0,NNE,10.4,-,N/A,,Clear,30,2013-06-20 17:35:00
11:55 AM,79.9,62.4,55,29.83,10.0,North,10.4,17.3,N/A,,Clear,10,2013-06-20 17:55:00
12:15 PM,79.9,62.6,55,29.83,10.0,North,9.2,17.3,N/A,,Clear,10,2013-06-20 18:15:00
12:35 PM,81.0,62.6,53,29.84,10.0,NNE,10.4,17.3,N/A,,Scattered Clouds,30,2013-06-20 18:35:00
12:55 PM,81.5,62.4,52,29.84,10.0,NE,5.8,-,N/A,,Scattered Clouds,50,2013-06-20 18:55:00
1:15 PM,83.3,62.4,49,29.83,10.0,NNE,8.1,-,N/A,,Scattered Clouds,30,2013-06-20 19:15:00
1:35 PM,82.6,62.1,50,29.83,10.0,East,4.6,-,N/A,,Clear,90,2013-06-20 19:35:00
1:55 PM,83.1,63.0,50,29.83,10.0,East,8.1,-,N/A,,Scattered Clouds,90,2013-06-20 19:55:00
2:15 PM,83.3,62.6,50,29.83,10.0,ENE,6.9,-,N/A,,Scattered Clouds,60,2013-06-20 20:15:00
2:35 PM,82.9,63.0,51,29.83,10.0,ENE,10.4,16.1,N/A,,Scattered Clouds,60,2013-06-20 20:35:00
2:55 PM,84.4,63.1,49,29.83,10.0,East,11.5,17.3,N/A,,Scattered Clouds,80,2013-06-20 20:55:00
3:15 PM,84.2,63.0,49,29.83,10.0,ENE,9.2,-,N/A,,Clear,60,2013-06-20 21:15:00
3:35 PM,84.6,62.2,47,29.83,10.0,East,6.9,-,N/A,,Clear,80,2013-06-20 21:35:00
3:55 PM,84.4,62.6,48,29.83,10.0,ENE,9.2,-,N/A,,Clear,70,2013-06-20 21:55:00
4:15 PM,84.7,62.8,48,29.83,10.0,NE,5.8,-,N/A,,Clear,40,2013-06-20 22:15:00
4:35 PM,84.9,63.3,48,29.83,10.0,ENE,6.9,-,N/A,,Clear,60,2013-06-20 22:35:00
4:55 PM,84.7,62.8,48,29.82,10.0,NNE,4.6,-,N/A,,Clear,30,2013-06-20 22:55:00
5:15 PM,85.5,63.5,48,29.82,10.0,NNE,8.1,-,N/A,,Clear,30,2013-06-20 23:15:00
5:35 PM,85.1,63.7,49,29.82,10.0,NE,8.1,-,N/A,,Clear,40,2013-06-20 23:35:00
5:55 PM,84.9,63.1,48,29.82,10.0,North,8.1,-,N/A,,Clear,360,2013-06-20 23:55:00
6:15 PM,84.2,63.0,49,29.82,10.0,NNE,8.1,-,N/A,,Clear,20,2013-06-21 00:15:00
6:35 PM,84.2,63.3,49,29.81,10.0,NNE,6.9,-,N/A,,Clear,30,2013-06-21 00:35:00
6:55 PM,83.5,64.0,52,29.81,10.0,NNE,8.1,-,N/A,,Clear,20,2013-06-21 00:55:00
7:15 PM,82.6,64.4,54,29.81,10.0,NNE,9.2,-,N/A,,Clear,20,2013-06-21 01:15:00
7:35 PM,81.5,64.9,57,29.81,10.0,NNE,5.8,-,N/A,,Clear,30,2013-06-21 01:35:00
7:55 PM,79.5,65.5,62,29.82,10.0,NNE,4.6,-,N/A,,Clear,30,2013-06-21 01:55:00
8:15 PM,77.5,65.5,66,29.82,10.0,NNE,3.5,-,N/A,,Clear,20,2013-06-21 02:15:00
8:35 PM,76.1,65.3,69,29.81,10.0,NE,3.5,-,N/A,,Clear,50,2013-06-21 02:35:00
8:55 PM,75.9,65.5,70,29.79,10.0,NNE,15.0,-,N/A,,Clear,20,2013-06-21 02:55:00
9:15 PM,75.6,65.5,71,29.79,10.0,NNE,11.5,-,N/A,,Clear,20,2013-06-21 03:15:00
9:35 PM,75.2,65.5,72,29.83,10.0,East,3.5,-,N/A,,Clear,100,2013-06-21 03:35:00
9:55 PM,73.6,65.1,75,29.82,10.0,NNE,5.8,-,N/A,,Clear,30,2013-06-21 03:55:00
10:15 PM,72.9,65.1,77,29.83,10.0,ENE,6.9,-,N/A,,Clear,70,2013-06-21 04:15:00
10:35 PM,74.5,65.5,73,29.83,10.0,ENE,5.8,-,N/A,,Clear,60,2013-06-21 04:35:00
10:55 PM,72.7,65.5,78,29.83,10.0,NE,6.9,-,N/A,,Clear,40,2013-06-21 04:55:00
11:15 PM,72.5,65.5,79,29.82,10.0,ENE,5.8,-,N/A,,Clear,60,2013-06-21 05:15:00
11:35 PM,72.3,65.5,79,29.82,10.0,ESE,4.6,-,N/A,,Clear,120,2013-06-21 05:35:00
11:55 PM,71.8,65.5,80,29.81,10.0,East,3.5,-,N/A,,Clear,80,2013-06-21 05:55:00